Hourly Weather Klawki

Today, 29 July, Thursday

Time Temperature Precipitation Wind Pressure Humidity
00:00 +20°C° 0.1 mm 1 mps 756 mmHg 94%
01:00 +19°C° 0 mm 2 mps 756 mmHg 93%
02:00 +18°C° 0 mm 2 mps 756 mmHg 93%
03:00 +18°C° 0 mm 2 mps 756 mmHg 94%
04:00 +18°C° 0 mm 3 mps 756 mmHg 94%
05:00 +19°C° 0 mm 3 mps 756 mmHg 88%
06:00 +20°C° 0 mm 3 mps 756 mmHg 83%
07:00 +21°C° 0 mm 4 mps 756 mmHg 78%
08:00 +23°C° 0 mm 4 mps 756 mmHg 69%
09:00 +25°C° 0 mm 4 mps 756 mmHg 60%
10:00 +27°C° 0 mm 5 mps 756 mmHg 51%
11:00 +27°C° 0 mm 5 mps 756 mmHg 50%
12:00 +26°C° 0 mm 5 mps 756 mmHg 50%
13:00 +26°C° 0 mm 5 mps 756 mmHg 49%
14:00 +26°C° 0 mm 5 mps 756 mmHg 50%
15:00 +26°C° 0 mm 5 mps 756 mmHg 50%
16:00 +25°C° 0 mm 4 mps 756 mmHg 50%
17:00 +23°C° 0 mm 4 mps 756 mmHg 53%
18:00 +22°C° 0 mm 4 mps 756 mmHg 55%
19:00 +22°C° 0 mm 3 mps 756 mmHg 57%
20:00 +21°C° 0 mm 3 mps 756 mmHg 60%
21:00 +20°C° 0 mm 3 mps 756 mmHg 63%
22:00 +18°C° 0 mm 2 mps 756 mmHg 65%
23:00 +18°C° 0 mm 2 mps 756 mmHg 69%

Tomorrow, 30 July, Friday

Time Temperature Precipitation Wind Pressure Humidity
00:00 +17°C° 0 mm 3 mps 756 mmHg 73%
01:00 +16°C° 0 mm 3 mps 756 mmHg 76%
02:00 +14°C° 0 mm 3 mps 756 mmHg 76%
03:00 +14°C° 0 mm 3 mps 756 mmHg 76%
04:00 +13°C° 0 mm 3 mps 756 mmHg 75%
05:00 +15°C° 0 mm 4 mps 756 mmHg 69%
06:00 +17°C° 0 mm 5 mps 756 mmHg 63%
07:00 +19°C° 0 mm 6 mps 756 mmHg 57%
08:00 +21°C° 0 mm 7 mps 756 mmHg 51%
09:00 +22°C° 0 mm 7 mps 755 mmHg 45%
10:00 +23°C° 0 mm 8 mps 755 mmHg 39%
11:00 +23°C° 0 mm 8 mps 755 mmHg 37%
12:00 +24°C° 0 mm 8 mps 755 mmHg 35%
13:00 +26°C° 0 mm 8 mps 754 mmHg 33%
14:00 +26°C° 0 mm 7 mps 754 mmHg 34%
15:00 +27°C° 0 mm 7 mps 754 mmHg 34%
16:00 +27°C° 0 mm 7 mps 754 mmHg 35%
17:00 +24°C° 0 mm 6 mps 754 mmHg 39%
18:00 +23°C° 0 mm 5 mps 754 mmHg 43%
19:00 +22°C° 0 mm 4 mps 754 mmHg 47%
20:00 +20°C° 0 mm 4 mps 754 mmHg 52%
21:00 +19°C° 0 mm 3 mps 754 mmHg 57%
22:00 +18°C° 0 mm 3 mps 754 mmHg 61%
23:00 +17°C° 0 mm 3 mps 754 mmHg 66%

Day after tomorrow, 31 July, Saturday

Time Temperature Precipitation Wind Pressure Humidity
00:00 +16°C° 0 mm 3 mps 755 mmHg 70%
01:00 +16°C° 0 mm 3 mps 755 mmHg 74%
02:00 +14°C° 0 mm 3 mps 755 mmHg 76%
03:00 +14°C° 0 mm 3 mps 755 mmHg 78%
04:00 +14°C° 0 mm 3 mps 755 mmHg 80%
05:00 +17°C° 0 mm 3 mps 755 mmHg 74%
06:00 +18°C° 0 mm 3 mps 755 mmHg 68%
07:00 +20°C° 0 mm 3 mps 755 mmHg 62%
08:00 +22°C° 0 mm 4 mps 754 mmHg 58%
09:00 +23°C° 0 mm 4 mps 754 mmHg 53%
10:00 +26°C° 0 mm 4 mps 754 mmHg 49%
11:00 +26°C° 0 mm 5 mps 754 mmHg 47%
12:00 +27°C° 0 mm 5 mps 753 mmHg 45%
13:00 +28°C° 0 mm 6 mps 753 mmHg 43%
14:00 +28°C° 0 mm 6 mps 753 mmHg 46%
15:00 +28°C° 0 mm 6 mps 753 mmHg 48%
16:00 +27°C° 0 mm 5 mps 752 mmHg 51%
17:00 +26°C° 0.1 mm 5 mps 752 mmHg 56%
18:00 +25°C° 0.1 mm 4 mps 752 mmHg 62%
19:00 +22°C° 0.1 mm 3 mps 752 mmHg 67%
20:00 +21°C° 0 mm 3 mps 752 mmHg 70%
21:00 +20°C° 0 mm 2 mps 753 mmHg 74%
22:00 +18°C° 0 mm 2 mps 753 mmHg 77%
23:00 +18°C° 0 mm 3 mps 753 mmHg 77%

1 August, Sunday

Time Temperature Precipitation Wind Pressure Humidity
00:00 +17°C° 0 mm 3 mps 753 mmHg 77%
01:00 +16°C° 0 mm 3 mps 753 mmHg 77%
02:00 +15°C° 0 mm 4 mps 753 mmHg 76%
03:00 +15°C° 0 mm 4 mps 753 mmHg 76%
04:00 +15°C° 0 mm 4 mps 754 mmHg 75%
05:00 +16°C° 0 mm 5 mps 754 mmHg 72%
06:00 +17°C° 0 mm 5 mps 754 mmHg 70%
07:00 +19°C° 0 mm 5 mps 754 mmHg 68%
08:00 +20°C° 0 mm 5 mps 754 mmHg 63%
09:00 +22°C° 0 mm 5 mps 754 mmHg 58%
10:00 +23°C° 0 mm 4 mps 755 mmHg 53%
11:00 +23°C° 0 mm 4 mps 755 mmHg 52%
12:00 +23°C° 0 mm 4 mps 755 mmHg 52%
13:00 +23°C° 0 mm 4 mps 755 mmHg 52%
14:00 +22°C° 0.1 mm 4 mps 755 mmHg 55%
15:00 +22°C° 0.1 mm 4 mps 755 mmHg 58%
16:00 +22°C° 0.1 mm 4 mps 755 mmHg 61%
17:00 +21°C° 0 mm 3 mps 755 mmHg 63%
18:00 +20°C° 0 mm 3 mps 755 mmHg 66%
19:00 +20°C° 0 mm 2 mps 755 mmHg 68%
20:00 +18°C° 0 mm 2 mps 755 mmHg 71%
21:00 +17°C° 0 mm 2 mps 756 mmHg 75%
22:00 +16°C° 0 mm 2 mps 756 mmHg 78%
23:00 +16°C° 0 mm 2 mps 756 mmHg 79%

2 August, Monday

Time Temperature Precipitation Wind Pressure Humidity
00:00 +16°C° 0 mm 2 mps 756 mmHg 80%
01:00 +15°C° 0 mm 2 mps 756 mmHg 81%
02:00 +15°C° 0 mm 2 mps 756 mmHg 82%
03:00 +15°C° 0 mm 2 mps 756 mmHg 82%
04:00 +15°C° 0 mm 2 mps 756 mmHg 83%
05:00 +16°C° 0 mm 3 mps 756 mmHg 77%
06:00 +17°C° 0 mm 4 mps 756 mmHg 71%
07:00 +19°C° 0 mm 4 mps 756 mmHg 65%
08:00 +20°C° 0 mm 5 mps 756 mmHg 60%
09:00 +21°C° 0 mm 5 mps 757 mmHg 55%
10:00 +22°C° 0 mm 5 mps 757 mmHg 50%
11:00 +22°C° 0.1 mm 5 mps 757 mmHg 49%
12:00 +22°C° 0.1 mm 5 mps 757 mmHg 48%
13:00 +22°C° 0.1 mm 5 mps 757 mmHg 47%
14:00 +22°C° 0 mm 4 mps 757 mmHg 48%
15:00 +22°C° 0 mm 4 mps 757 mmHg 49%
16:00 +22°C° 0 mm 4 mps 757 mmHg 50%
17:00 +21°C° 0 mm 3 mps 758 mmHg 55%
18:00 +20°C° 0 mm 3 mps 758 mmHg 59%
19:00 +20°C° 0 mm 2 mps 758 mmHg 63%
20:00 +18°C° 0.1 mm 2 mps 758 mmHg 71%
21:00 +17°C° 0.1 mm 2 mps 758 mmHg 78%
22:00 +16°C° 0.1 mm 2 mps 759 mmHg 85%
23:00 +16°C° 0.1 mm 2 mps 759 mmHg 86%

3 August, Tuesday

Time Temperature Precipitation Wind Pressure Humidity
00:00 +16°C° 0.1 mm 2 mps 759 mmHg 87%
01:00 +16°C° 0.1 mm 2 mps 759 mmHg 88%
02:00 +15°C° 0 mm 2 mps 759 mmHg 90%
03:00 +15°C° 0 mm 2 mps 759 mmHg 92%
04:00 +14°C° 0 mm 2 mps 759 mmHg 94%
05:00 +16°C° 0 mm 2 mps 759 mmHg 88%
06:00 +17°C° 0 mm 2 mps 759 mmHg 83%
07:00 +18°C° 0 mm 2 mps 759 mmHg 77%
08:00 +20°C° 0 mm 3 mps 760 mmHg 67%
09:00 +22°C° 0 mm 3 mps 760 mmHg 57%
10:00 +23°C° 0 mm 4 mps 760 mmHg 47%
11:00 +23°C° 0 mm 4 mps 760 mmHg 47%
12:00 +23°C° 0 mm 4 mps 759 mmHg 48%
13:00 +23°C° 0 mm 4 mps 759 mmHg 49%
14:00 +24°C° 0 mm 3 mps 759 mmHg 49%
15:00 +24°C° 0 mm 3 mps 759 mmHg 49%
16:00 +24°C° 0 mm 2 mps 759 mmHg 49%
17:00 +23°C° 0.1 mm 2 mps 759 mmHg 54%
18:00 +22°C° 0.1 mm 1 mps 759 mmHg 58%
19:00 +21°C° 0.1 mm 1 mps 759 mmHg 63%
20:00 +20°C° 0.2 mm 1 mps 760 mmHg 69%
21:00 +18°C° 0.2 mm 1 mps 760 mmHg 76%
22:00 +16°C° 0.2 mm 1 mps 760 mmHg 82%
23:00 +16°C° 0 mm 1 mps 760 mmHg 82%
Show more